GFSNE_sfc_dewp_198.txt.gz
Dewpoint
70 71 70 68 70 70 68 68 68 61 63 69 68 71 71 69 71 71 71 72 71 71 70 70 70 71 72 72 72 72 72 72 72 72 72 72 72 72
67 71 72 68 69 69 70 68 68 66 63 65 67 70 72 72 73 73 72 73 71 70 70 69 69 70 70 71 70 70 70 70 70 70 70 71 71 71
70 71 71 72 68 68 68 69 67 66 63 63 68 70 74 74 73 74 73 73 71 70 69 69 68 69 69 69 69 69 69 69 69 69 70 70 70 71
70 71 70 67 73 74 68 71 69 70 66 69 69 67 73 73 74 75 73 69 70 70 69 68 68 67 67 67 66 66 66 66 67 67 68 68 69 69
71 71 70 70 72 69 71 69 68 68 69 68 66 67 68 69 73 75 74 74 71 71 68 67 67 66 66 65 64 63 63 62 63 64 65 65 66 67
71 71 71 71 72 72 71 72 70 70 71 68 66 65 66 70 70 68 67 69 68 66 68 68 69 68 66 65 64 64 61 60 60 60 61 62 63 64
71 72 71 71 70 71 69 72 73 71 66 64 65 65 65 65 69 66 66 66 68 69 67 67 68 70 70 66 68 66 64 62 60 59 59 59 59 61
71 71 72 71 71 69 68 68 71 73 72 67 63 65 71 69 68 66 65 65 64 69 70 67 66 65 66 67 66 66 64 63 62 60 59 59 58 59
71 71 69 66 70 72 69 67 68 67 68 75 72 71 74 72 73 73 72 73 72 71 77 68 67 65 65 64 65 65 64 62 61 60 60 59 58 57
71 71 72 72 72 73 72 71 72 72 72 71 72 72 76 76 76 75 74 74 72 70 72 66 67 64 65 66 65 64 62 61 60 59 58 57 56 55
74 72 72 72 68 66 72 71 71 70 70 67 66 65 65 65 67 72 74 74 68 66 70 68 67 68 68 68 66 64 61 60 58 57 57 56 54 53
75 75 67 71 64 64 72 71 71 71 74 74 72 69 68 68 65 72 73 72 72 67 68 68 67 66 62 60 63 66 66 59 56 55 56 54 52 61
70 75 76 63 60 59 61 71 70 69 70 71 72 75 75 71 69 69 70 69 68 66 65 66 65 63 62 62 62 62 64 62 61 60 55 53 51 53
65 69 74 61 58 57 59 62 59 63 69 69 73 73 68 68 67 67 68 67 66 66 65 66 63 63 62 60 58 60 60 60 58 57 57 55 54 53
75 69 59 55 54 58 58 58 58 68 68 69 71 68 68 67 68 66 65 66 64 63 62 64 62 61 60 60 59 59 57 57 56 56 56 56 55 56
63 66 64 61 59 63 62 63 68 68 68 68 69 66 64 61 59 59 58 59 59 59 62 63 63 61 58 57 58 55 55 54 54 54 54 55 55 55
67 66 65 65 66 66 66 66 66 66 65 65 64 62 59 58 57 58 58 58 57 57 57 59 62 61 59 59 56 56 54 54 53 53 53 52 54 54
66 65 65 65 65 65 65 65 65 62 63 61 59 57 56 56 56 56 57 56 56 56 56 57 59 58 58 59 55 55 55 54 53 54 54 53 52 53
65 64 64 64 65 64 64 65 62 60 63 58 57 56 56 56 55 54 55 55 54 54 55 57 57 55 52 51 56 52 54 54 55 54 55 54 53 53
63 60 60 60 62 63 64 63 59 59 57 56 56 55 55 54 53 53 53 53 51 51 51 53 53 54 51 50 53 56 52 56 56 53 53 51 52 52
62 59 59 59 62 63 63 60 59 57 56 56 55 54 55 54 54 52 49 49 50 50 49 49 52 52 52 53 52 50 56 51 55 57 57 52 51 51
61 60 59 60 61 63 61 58 58 56 56 56 54 54 54 54 52 52 50 48 48 49 49 50 56 54 52 47 44 49 48 54 54 54 54 54 54 51
60 59 60 64 62 62 60 58 57 56 56 55 54 55 55 53 54 52 50 50 49 50 50 50 50 52 51 49 47 43 48 51 48 51 56 54 54 54

GFSNE_sfc_dewp_201.txt.gz
Dewpoint
71 71 68 64 64 65 65 68 70 68 66 69 72 70 70 68 72 72 71 71 71 70 70 70 71 72 72 72 73 74 74 74 74 74 73 73 72 71
67 71 72 66 66 66 66 69 72 66 65 69 68 71 74 70 74 72 71 72 71 71 70 69 70 71 71 71 71 71 71 71 71 71 71 71 71 71
73 72 72 73 68 65 65 71 67 70 62 64 70 74 74 74 74 73 73 73 71 70 70 69 68 69 70 70 70 70 70 70 69 70 70 70 70 70
71 72 71 67 75 74 68 74 72 71 67 73 71 70 74 77 75 76 73 68 72 71 69 68 68 68 68 68 67 67 67 67 67 67 68 69 69 69
71 72 71 73 73 71 73 70 68 68 69 67 66 70 73 74 75 75 76 76 71 71 69 68 68 67 67 66 65 64 63 63 63 64 65 66 67 68
71 72 71 73 73 74 73 75 72 71 71 66 67 66 69 74 74 68 69 73 71 67 70 69 69 68 67 65 65 64 62 61 60 60 61 62 63 64
73 72 71 73 71 72 70 74 76 72 67 68 67 68 68 70 71 70 69 66 70 68 68 66 70 70 70 67 68 67 64 62 61 60 59 59 59 60
71 73 74 71 71 69 69 69 71 75 75 68 65 65 75 71 67 68 73 71 70 77 70 71 71 70 66 70 68 67 64 63 62 61 59 59 58 59
73 72 70 65 71 73 69 68 68 67 68 73 73 73 74 74 74 74 75 71 70 69 78 68 70 70 69 63 65 64 63 62 61 60 59 58 57 57
72 74 74 73 73 75 73 73 74 74 73 70 72 73 75 76 76 77 76 77 74 70 73 70 68 67 67 69 65 64 62 61 60 59 57 56 54 53
72 73 74 73 69 66 73 74 74 73 67 68 69 69 68 68 69 72 74 74 72 72 74 71 67 68 67 67 68 64 61 59 58 57 57 53 52 52
72 74 67 70 66 64 74 74 73 73 74 72 73 70 68 69 66 72 71 73 73 69 69 68 68 67 62 61 64 67 64 58 55 56 55 54 52 59
67 70 69 63 62 60 62 75 73 72 73 72 71 71 74 73 71 71 73 72 71 70 67 68 66 63 61 60 61 62 64 62 62 59 54 53 53 53
68 63 67 60 57 58 61 64 61 63 69 67 66 69 74 73 70 70 71 70 69 69 66 68 64 62 61 59 58 61 60 60 59 57 57 55 54 54
66 63 60 57 57 59 59 59 59 67 67 66 69 74 75 73 72 71 69 69 67 65 64 65 63 63 60 59 58 58 56 57 57 56 55 54 55 56
62 67 65 64 63 64 64 64 67 68 67 67 69 74 73 69 67 66 62 62 61 61 64 63 64 63 59 58 58 56 56 55 55 54 55 55 55 55
66 70 68 68 67 66 66 66 67 68 68 71 73 70 66 64 61 60 59 59 57 58 59 61 63 63 61 62 56 56 56 55 55 55 55 53 54 54
67 68 66 66 65 65 66 67 68 68 68 68 68 66 62 59 58 58 58 56 55 56 56 59 60 58 59 61 56 55 55 56 55 56 56 54 53 54
66 65 65 66 64 64 66 67 65 67 70 64 63 61 58 57 57 56 55 55 55 55 56 56 56 57 55 52 58 54 56 55 55 54 55 54 52 53
65 62 61 61 62 62 61 65 65 66 62 62 59 57 57 56 56 54 55 55 54 54 53 54 54 54 52 51 51 57 52 58 55 54 52 51 52 53
64 60 58 58 58 60 61 62 66 61 61 59 57 56 56 55 55 54 53 50 52 52 50 51 53 54 52 52 52 54 58 51 56 59 58 54 53 54
62 59 57 57 59 62 63 65 63 59 60 57 56 56 56 55 54 54 52 50 50 49 50 51 57 52 52 51 47 50 49 57 54 54 54 55 55 53
60 59 59 59 62 64 64 62 59 58 57 57 56 56 56 55 55 54 53 51 49 48 50 51 51 54 53 50 49 47 53 53 50 56 55 54 54 54

GFSNE_sfc_dewp_207.txt.gz
Dewpoint
71 70 71 70 71 70 71 69 65 64 62 67 67 71 70 72 73 73 73 72 71 70 70 70 70 71 71 72 73 73 73 74 74 74 74 74 75 75
70 70 70 70 70 71 69 70 69 67 64 68 68 66 67 67 73 72 72 71 70 70 69 68 69 69 70 70 71 71 71 72 72 72 72 72 72 72
71 70 70 70 70 70 72 71 69 71 66 67 67 66 68 70 73 73 73 72 71 69 69 68 68 68 69 69 69 70 70 70 70 70 71 70 70 70
69 71 70 69 70 70 70 70 70 70 69 66 69 69 70 71 72 71 73 72 72 71 68 68 68 67 67 67 67 68 68 68 68 68 69 69 69 69
70 70 70 70 70 69 70 70 70 70 70 69 68 70 71 73 73 74 73 73 73 71 68 67 68 67 66 66 65 65 64 64 64 65 66 66 67 68
72 71 71 71 71 70 69 70 70 69 69 68 68 68 70 71 71 71 71 73 73 75 72 69 69 68 67 65 64 64 62 61 61 61 62 62 63 64
71 72 71 72 72 71 70 70 70 69 69 69 68 68 68 69 69 70 69 68 70 72 71 70 69 69 69 68 68 67 64 63 61 60 59 59 59 60
70 69 70 71 70 70 69 69 71 69 68 68 68 67 67 68 70 69 70 67 65 71 70 70 71 71 71 71 69 67 65 63 62 60 59 59 58 58
70 69 70 69 69 70 68 67 68 68 68 68 68 69 69 70 70 69 68 68 68 70 70 68 70 69 70 68 65 65 64 62 61 60 59 57 55 55
71 71 70 69 68 71 71 70 68 69 68 68 68 68 69 70 72 72 70 70 70 70 71 67 69 68 69 66 65 63 61 60 59 57 55 54 53 52
69 70 71 70 68 68 70 70 70 71 69 66 66 66 67 67 70 71 69 68 66 68 70 68 68 67 68 65 63 61 59 58 57 55 55 54 52 52
68 69 66 69 67 64 70 70 69 69 71 71 70 67 66 68 66 70 70 68 67 66 69 68 67 66 63 64 61 60 59 57 55 55 54 53 51 54
67 67 68 63 61 61 62 70 69 69 70 71 71 70 71 71 70 69 71 70 68 67 68 68 66 65 64 62 64 62 61 56 55 54 53 52 53 54
66 66 66 61 59 58 60 62 63 66 70 70 69 69 69 69 71 71 71 70 69 68 66 66 64 62 61 59 59 60 59 58 57 55 53 53 53 54
68 65 62 59 58 60 59 61 60 66 67 67 68 67 68 70 71 70 68 67 66 66 66 64 63 62 60 58 57 57 56 57 55 53 53 53 53 55
65 65 63 61 61 63 62 61 65 67 67 67 67 67 68 69 68 67 66 65 62 61 62 62 62 60 59 58 58 56 57 54 54 53 52 52 53 54
65 66 65 64 64 65 65 64 65 66 66 67 67 67 68 68 67 68 66 64 61 59 59 60 59 59 60 59 57 57 55 54 53 52 52 51 52 52
62 67 66 66 66 66 66 66 66 66 67 67 67 68 67 67 67 66 64 63 61 60 59 59 59 57 57 57 60 56 55 55 53 53 52 51 52 52
65 68 67 67 67 67 67 67 66 67 67 68 68 68 66 66 65 62 60 59 59 59 60 59 59 56 55 54 58 56 56 56 55 54 54 54 52 52
64 63 66 67 67 68 67 66 66 66 66 66 66 66 66 64 61 59 59 57 56 57 58 60 59 58 56 56 56 55 53 57 55 55 54 53 51 54
63 63 64 67 69 67 66 65 66 66 66 67 67 65 65 63 60 59 58 55 55 57 57 58 60 59 59 53 50 54 55 53 55 56 56 51 48 49
63 63 63 65 69 68 66 65 66 65 66 66 65 64 62 60 59 58 57 55 55 57 56 56 56 53 50 49 48 47 53 55 52 53 55 56 55 53
63 63 63 67 68 66 65 65 65 65 65 65 64 62 61 59 59 58 57 57 54 53 55 53 53 52 49 49 49 50 52 55 53 50 50 53 53 54

GFSNE_sfc_dewp_210.txt.gz
Dewpoint
70 70 69 70 68 69 70 68 64 62 61 64 66 70 70 70 73 72 73 71 71 70 70 70 70 71 72 72 72 73 73 73 73 73 73 74 75 75
69 69 69 70 70 69 70 69 68 66 62 66 67 68 67 68 70 72 73 72 70 70 69 68 69 70 70 70 70 71 71 71 72 72 72 72 72 73
70 70 70 69 69 70 70 70 69 67 64 67 69 65 66 68 70 74 73 72 72 69 69 68 68 68 68 69 68 69 69 69 70 70 70 71 71 71
70 70 70 71 68 68 69 70 70 69 68 66 68 68 68 69 70 71 72 72 72 71 68 67 67 67 66 66 66 66 66 66 67 68 69 69 70 70
69 68 68 69 69 69 68 69 69 70 69 68 67 69 69 70 70 72 72 72 74 72 68 67 66 66 66 65 64 63 63 63 64 65 65 66 67 68
70 70 70 69 69 69 68 69 69 69 69 68 67 68 70 70 71 71 70 71 72 74 73 69 68 67 66 65 64 64 62 61 61 61 62 62 63 65
70 71 71 71 70 70 69 69 69 68 68 68 67 67 67 68 68 69 70 68 69 71 71 70 69 69 69 66 68 67 64 63 61 60 59 59 59 60
69 70 70 70 70 68 68 68 69 68 67 67 67 66 66 67 69 68 68 67 66 70 70 69 70 69 71 71 69 66 65 63 61 61 61 59 58 59
69 69 69 68 69 69 68 66 67 67 67 67 66 67 67 68 68 67 67 67 66 69 69 67 69 68 70 68 63 63 63 62 61 59 59 58 55 54
69 70 69 68 68 69 69 70 68 68 69 68 68 67 68 68 70 69 68 68 69 70 70 66 68 68 67 65 63 62 60 59 58 56 55 53 52 52
70 70 70 69 66 65 69 69 69 69 66 64 65 65 64 64 68 70 69 67 66 66 69 67 67 67 67 63 61 60 58 57 55 55 54 53 51 51
68 69 66 68 64 62 68 68 67 67 69 70 68 66 65 66 64 70 69 68 66 65 68 67 66 66 63 62 60 58 57 55 53 54 54 53 50 52
68 67 68 62 61 60 61 69 67 68 68 69 70 70 70 69 69 68 70 69 67 67 68 68 65 64 63 61 61 59 58 56 56 53 52 52 52 53
64 68 68 60 58 58 60 62 61 64 68 69 69 69 69 69 69 70 69 71 70 69 67 67 66 64 61 59 59 61 59 57 55 54 53 52 52 53
64 64 59 57 57 59 58 59 60 66 68 68 68 69 69 70 68 69 68 67 66 65 66 65 65 63 61 59 57 57 56 56 54 53 52 52 52 52
63 64 63 62 59 63 62 60 63 66 67 67 68 68 67 67 68 67 66 64 63 61 62 62 62 61 58 58 57 55 55 54 53 52 51 51 52 52
60 63 65 64 65 64 64 65 65 66 66 66 66 65 65 66 67 67 64 63 62 60 59 59 59 59 58 57 56 56 54 53 53 52 50 50 51 52
56 61 64 65 66 66 66 65 64 65 65 65 66 66 66 66 67 67 64 64 62 59 58 58 57 56 56 56 59 55 54 54 52 51 50 50 50 52
60 62 62 63 65 66 66 66 65 65 66 66 66 66 66 67 66 67 65 62 61 60 58 57 56 55 52 50 55 57 56 54 53 52 52 52 52 52
61 62 62 65 67 67 66 66 66 66 66 66 66 66 67 66 65 64 63 63 59 58 58 57 57 56 54 53 54 57 53 55 54 53 52 52 52 53
61 62 63 62 66 68 68 68 67 66 66 66 66 66 66 66 65 65 63 57 57 56 56 58 60 58 57 54 52 53 55 52 54 54 54 52 49 48
60 62 63 62 63 67 68 67 66 65 66 66 66 66 66 66 64 63 62 60 56 56 56 57 58 58 56 54 52 48 49 54 52 53 55 54 50 49
63 62 61 62 63 64 67 67 66 66 65 65 66 65 65 63 64 62 61 59 57 56 56 55 55 53 55 53 51 49 49 52 53 51 51 53 54 54

GFSNE_sfc_dewp_216.txt.gz
Dewpoint
72 72 70 72 71 69 70 68 67 64 66 67 68 70 72 73 73 72 73 71 70 70 69 70 70 71 72 72 73 73 74 74 74 74 73 74 74 74
70 71 70 72 72 70 70 70 69 68 66 67 68 69 70 70 72 73 73 72 70 69 69 68 69 70 70 71 71 71 72 72 72 72 72 72 72 72
71 71 71 71 72 71 70 69 68 69 67 69 70 70 69 69 69 71 70 71 74 70 69 68 68 68 69 69 69 69 70 70 70 70 70 70 70 71
70 71 71 71 71 72 70 70 70 70 69 68 69 70 68 70 70 70 69 70 72 71 68 68 67 67 67 67 67 67 67 67 67 68 68 69 69 70
71 71 71 71 71 71 71 71 70 71 70 68 69 71 70 72 72 72 73 74 74 72 68 67 67 66 66 65 65 64 63 63 63 64 65 66 67 68
71 71 71 70 70 71 70 71 70 70 70 70 69 70 71 72 72 72 71 74 74 73 72 71 70 68 66 65 64 64 61 60 60 60 61 62 63 65
70 71 71 70 69 70 71 71 71 70 70 70 69 69 70 70 70 71 72 72 73 72 74 72 75 74 73 67 69 66 64 62 60 59 59 59 59 61
68 69 71 70 70 67 67 68 70 71 70 69 70 69 70 70 71 72 71 71 70 73 73 73 74 74 73 73 68 66 64 63 62 61 59 58 58 59
68 68 69 68 70 71 68 67 67 66 68 70 69 69 70 71 71 71 71 70 69 72 73 69 72 72 73 68 63 63 63 62 61 60 59 58 57 56
68 68 69 69 70 71 71 71 70 70 70 68 70 70 71 73 72 72 73 71 70 70 73 69 69 69 72 69 62 61 60 59 58 58 56 54 53 52
69 70 70 70 67 64 70 70 70 70 66 65 66 65 64 64 70 72 70 70 69 70 72 72 71 71 70 69 64 59 58 57 56 55 55 53 51 51
69 70 66 69 64 62 68 70 69 69 71 71 69 66 65 67 64 72 72 70 70 69 72 71 70 70 68 65 63 61 58 54 53 54 54 52 50 58
69 68 68 61 60 57 59 69 68 70 69 70 71 72 71 70 68 69 72 71 71 71 72 71 69 68 68 65 64 62 61 57 58 56 53 52 52 54
65 64 64 60 58 57 58 59 59 62 71 70 69 68 70 71 72 70 70 72 72 72 73 73 69 68 67 65 65 63 61 61 60 60 59 55 52 52
65 64 60 57 58 58 57 58 59 65 67 68 68 68 69 70 73 72 72 72 72 73 72 72 70 70 68 67 65 64 61 61 60 60 59 58 57 56
62 63 60 60 58 59 60 61 63 66 67 67 68 69 71 71 71 71 70 68 68 68 69 70 71 70 67 67 65 62 63 61 59 61 59 57 56 56
62 63 61 60 59 59 61 63 65 66 65 67 69 69 70 70 70 71 71 68 67 68 65 65 64 66 66 66 63 63 61 60 59 59 58 57 56 55
59 62 61 61 61 61 62 63 64 65 65 67 68 69 68 69 69 69 69 68 67 68 67 64 62 61 61 62 62 62 61 60 59 58 57 56 54 55
60 60 60 61 61 62 62 62 63 64 66 66 66 67 67 68 67 68 67 66 66 67 66 64 62 62 58 58 57 58 59 59 57 57 56 55 55 55
59 60 60 61 61 60 62 63 64 65 66 66 66 66 67 67 66 67 67 66 66 66 65 63 62 62 61 60 57 58 54 59 58 58 56 56 56 54
58 60 61 61 61 62 63 64 64 63 63 65 65 64 66 67 67 67 67 61 63 66 63 61 62 61 64 59 57 57 59 53 58 59 58 56 55 55
60 60 60 60 61 62 62 63 63 64 65 65 65 65 66 67 67 67 67 67 65 65 64 65 65 61 59 58 58 59 57 58 56 54 55 56 56 53
60 60 61 61 61 62 62 63 63 64 64 66 66 66 66 66 68 68 67 66 65 64 64 63 62 61 61 60 59 59 59 57 56 57 58 55 54 54

GFSNE_sfc_dewp_219.txt.gz
Dewpoint
72 74 72 70 70 70 69 67 65 61 63 66 65 70 69 70 72 72 72 70 70 70 69 69 70 71 72 72 73 73 74 74 74 74 74 74 75 75
70 72 72 70 71 71 70 69 67 64 62 66 66 68 69 69 71 72 72 72 71 70 69 68 69 70 70 71 71 71 72 72 72 72 72 72 72 72
73 72 72 73 70 70 71 70 68 66 63 65 68 70 72 72 69 72 72 72 71 69 69 68 68 68 69 69 70 70 70 70 70 71 71 71 71 71
72 73 72 69 73 73 71 72 70 70 66 71 69 69 72 72 71 72 69 67 67 69 69 68 67 67 67 67 67 67 67 67 68 68 69 70 70 70
72 73 71 72 72 70 72 70 70 70 71 69 68 69 70 71 72 73 73 72 71 72 68 68 67 67 66 65 65 64 64 64 64 65 65 66 67 68
72 72 71 71 73 73 71 72 73 71 71 70 68 68 69 71 72 74 73 74 73 69 70 69 70 68 67 65 64 64 62 61 60 61 61 62 63 65
71 71 71 71 70 72 71 72 72 75 72 69 68 68 68 68 69 69 70 77 79 71 70 69 71 72 71 67 69 67 64 62 60 59 59 59 59 60
70 71 72 71 70 68 67 68 72 74 74 72 66 67 70 70 69 68 69 73 72 72 72 69 71 70 69 71 70 67 64 63 62 60 59 59 58 59
71 71 69 66 69 71 68 66 67 67 69 75 72 71 72 74 73 72 72 72 68 69 74 67 71 69 70 67 63 64 63 63 62 61 59 58 58 58
71 71 71 71 71 71 72 71 71 71 71 69 71 71 72 75 76 76 76 74 72 70 73 67 66 67 67 70 62 62 61 60 59 59 58 56 54 53
71 71 70 70 67 64 72 69 71 70 66 65 66 66 66 64 71 77 70 70 66 67 70 68 65 66 67 69 68 60 59 57 57 57 56 54 52 52
70 70 65 68 64 62 71 72 72 69 72 71 70 68 66 69 64 71 76 70 67 66 70 69 66 68 67 70 68 64 61 55 54 54 54 53 52 60
65 68 70 61 59 58 61 70 71 72 70 74 75 75 72 70 70 70 73 74 68 68 68 74 67 70 68 67 67 66 66 60 61 57 53 52 51 54
66 67 70 59 57 57 58 60 59 62 69 68 68 68 67 67 68 70 72 72 71 74 74 74 67 67 67 67 66 66 65 65 64 63 63 57 52 53
65 65 62 56 56 57 57 58 58 63 63 64 66 67 67 67 71 73 74 74 74 74 74 75 71 73 71 69 67 68 65 65 64 64 63 63 63 61
64 66 63 60 60 62 63 62 61 62 62 62 64 67 68 67 68 70 70 71 70 70 74 74 74 74 73 69 68 68 67 66 65 64 64 64 63 61
63 66 65 65 65 64 62 61 61 62 62 62 61 64 70 71 68 68 69 70 68 67 68 69 72 73 72 72 69 68 68 66 65 64 65 63 61 59
61 62 62 61 63 61 61 59 59 59 61 62 61 61 62 66 70 72 72 70 68 67 66 69 67 65 64 65 66 68 68 66 66 65 63 61 58 57
57 61 62 62 61 63 62 61 61 61 65 62 61 61 62 63 65 69 70 69 67 67 67 68 66 65 64 63 66 61 69 65 63 62 61 59 55 55
58 59 61 62 62 62 63 62 62 61 61 62 64 64 63 65 66 67 67 67 66 67 68 70 67 65 65 64 64 63 54 63 60 58 57 58 57 55
58 58 60 61 61 62 63 62 62 61 61 62 64 66 65 66 66 66 66 61 63 68 66 66 66 64 67 67 64 61 60 54 59 59 59 56 55 56
59 59 60 61 63 62 62 63 63 63 63 62 61 63 64 65 65 65 66 66 67 66 67 66 70 69 66 64 63 64 61 60 57 55 55 56 56 54
60 61 62 62 62 62 64 63 62 62 63 63 66 66 66 65 66 65 66 66 65 67 69 68 68 66 63 63 62 63 64 61 59 59 58 55 55 55

GFSNE_sfc_dewp_222.txt.gz
Dewpoint
70 70 69 65 65 66 66 65 63 63 67 67 64 70 68 69 70 70 71 70 70 70 69 69 70 71 71 72 72 73 74 74 74 74 74 75 75 75
70 72 71 66 65 69 67 66 65 64 61 65 64 67 68 67 70 71 71 72 70 70 69 68 69 70 70 70 71 71 72 72 72 72 72 72 73 73
71 71 72 73 67 64 65 68 68 65 63 62 65 68 73 72 70 71 71 71 70 69 69 69 68 68 69 69 70 70 70 70 70 71 71 71 71 72
70 71 71 68 72 71 66 71 74 71 66 68 69 67 73 72 74 73 70 66 68 69 69 68 68 67 67 67 67 68 67 68 68 69 69 70 70 70
70 71 71 72 74 69 68 66 67 70 70 67 65 66 67 69 74 74 74 72 67 69 68 68 67 67 66 65 65 65 64 64 64 65 66 67 68 69
71 71 71 72 75 75 71 72 69 70 72 72 66 64 65 70 73 73 71 70 70 68 69 68 70 68 67 65 65 65 62 61 61 62 62 63 64 65
71 71 72 71 70 72 76 74 75 69 65 68 70 71 66 63 72 66 66 66 71 70 69 68 69 70 70 67 69 67 65 63 61 60 60 60 60 61
74 72 72 71 70 68 68 68 72 73 71 64 66 72 74 69 66 65 64 76 70 69 73 70 67 70 67 70 69 68 65 64 62 61 60 59 59 59
72 74 72 67 70 71 68 67 67 66 68 71 71 72 74 75 76 76 73 74 68 72 74 69 67 67 67 66 66 67 66 64 63 61 60 59 58 58
71 72 73 74 71 71 70 70 71 71 70 69 70 70 71 72 76 76 75 76 76 70 73 67 65 67 67 72 64 64 62 61 61 60 59 57 56 56
68 70 71 72 68 64 73 70 70 69 65 65 66 65 64 65 70 73 67 66 64 64 68 66 65 64 63 65 66 61 60 59 58 58 58 56 54 53
67 68 64 68 63 62 71 72 73 72 69 68 70 68 67 70 65 72 68 68 69 64 65 66 66 64 61 63 64 68 66 56 56 56 56 55 53 61
59 60 60 62 61 60 61 70 68 71 71 71 69 68 67 68 69 70 71 69 69 67 65 75 66 64 63 64 68 69 68 63 65 60 53 53 52 55
62 60 62 58 58 58 60 63 60 63 73 73 71 70 66 64 65 67 73 72 71 71 72 78 68 66 63 68 69 72 68 68 66 65 64 57 52 53
63 59 57 57 56 58 57 59 60 66 65 70 69 67 68 64 69 71 76 77 75 74 71 77 71 71 67 64 66 73 71 68 68 67 67 66 63 62
61 61 60 60 60 62 64 60 62 65 65 64 63 65 66 69 66 67 76 75 74 68 75 77 77 75 68 68 69 67 73 68 68 67 67 66 66 66
59 66 68 67 64 63 64 65 66 66 65 65 64 63 63 68 69 70 71 74 73 69 67 74 76 76 75 75 73 73 72 71 72 69 68 66 66 66
58 61 61 63 64 65 65 65 67 63 63 64 64 64 63 62 63 70 74 73 72 72 72 64 73 69 68 71 69 72 69 66 70 70 68 65 65 65
56 59 61 61 62 62 63 65 62 61 66 60 59 61 60 60 59 59 61 68 70 71 72 72 74 68 65 63 66 64 67 66 66 70 66 65 63 59
57 59 59 60 61 62 62 63 66 65 66 64 63 61 59 59 59 59 60 61 67 68 67 71 73 68 66 63 62 63 58 68 68 68 66 64 61 56
59 59 58 59 60 63 62 62 67 66 67 66 65 63 64 63 62 64 60 56 61 66 66 66 67 65 68 67 66 64 66 57 63 68 66 61 57 56
59 61 62 63 62 64 65 64 63 63 66 65 65 65 66 66 66 65 64 64 66 65 66 66 68 71 69 66 64 65 65 64 57 57 56 57 57 53
59 62 64 66 67 67 65 63 63 62 62 62 63 65 65 62 63 65 64 65 65 67 67 68 71 71 68 66 63 63 67 66 62 61 60 56 56 57